[[{"header":{"parameterUnit":"m.s-1","parameterCategory":1,"la1":30.2991,"la2":30.254,"lo1":-89.0895,"lo2":-89.0444,"dy":0.0017,"dx":0.0017,"nx":28,"ny":28,"refTime":"2025-07-09T03:00:00:Z","depth":0,"parameterNumber":2,"parameterNumberName":"U-component_of_WINDS"},"data":[0,0,0,0,0,0,0,0,0,0,0,0,0,0,0,0,0,0,0,0,0,0,0,0,0,0,0,0,0,0,0,0,0,0,0,0,0,0,0,0,0,0,0,0,0,0,0,0,0,0,0,0,0,0,0,0,0,0,3.2424,3.2425,0,3.2529,3.253,3.2531,3.2523,3.2522,3.252,3.2519,3.2629,3.2633,3.2638,0,0,0,0,0,0,0,0,0,0,0,0,0,3.2223,3.2226,3.2424,3.2426,3.2427,3.2528,3.253,3.2531,3.2524,3.2522,3.252,3.2518,3.2628,3.2633,3.2638,0,0,0,0,0,0,0,0,0,0,0,0,0,3.2317,3.2228,3.2424,3.2435,3.2437,3.2528,3.253,3.2532,3.2524,3.2522,3.2519,3.2517,3.2626,3.2632,3.2639,3.2726,0,0,3.2659,3.2662,0,0,0,0,0,0,0,0,3.2312,3.2324,3.2432,3.2435,3.2437,3.2511,3.2499,3.2597,3.2525,3.2491,3.2519,3.2516,3.2592,3.2601,3.2626,3.2731,3.2736,3.2659,3.2663,3.2666,3.2668,0,0,0,0,0,0,0,3.2305,3.232,3.2466,3.2434,3.2437,3.2436,3.2447,3.2518,3.2553,3.2494,3.2494,3.2506,3.2593,3.2619,3.2628,3.2738,3.2659,3.2665,3.2669,3.2672,3.2922,3.2924,0,0,0,0,0,0,3.2295,3.2314,3.2462,3.2469,3.2367,3.2442,3.2454,3.2489,3.2553,3.256,3.2508,3.2505,3.2609,3.2621,3.2632,3.2739,3.2666,3.2672,3.2676,3.2919,3.2922,3.2925,0,0,0,0,0,0,3.2291,3.2309,3.2458,3.2392,3.2411,3.2448,3.2488,3.2493,3.2519,3.2563,3.257,3.2528,3.2608,3.2623,3.2703,3.2743,3.2675,3.2681,3.2916,3.292,3.2924,3.2953,0,0,0,0,0,0,3.2285,3.2307,3.234,3.2392,3.2414,3.2526,3.249,3.2496,3.253,3.2528,3.2584,3.2591,3.2607,3.2693,3.2709,3.275,3.2686,3.2913,3.2918,3.2923,3.2949,3.2958,3.2965,0,0,0,0,0,3.2278,3.2344,3.2341,3.2359,3.2455,3.2528,3.2541,3.2557,3.2534,3.2567,3.2596,3.2589,3.2736,3.2701,3.272,3.2763,3.291,3.2916,3.2922,3.2945,3.2956,3.2965,0,0,0,0,0,0,3.2295,3.2351,3.2348,3.2433,3.2476,3.2527,3.2569,3.2568,3.2618,3.2614,3.2633,3.2646,3.2727,3.2753,3.2714,3.2852,3.282,3.283,3.2831,3.2842,3.285,3.2841,3.2692,0,0,0,0,0,3.2309,3.2362,3.2409,3.2479,3.25,3.2531,3.2564,3.2573,3.2618,3.2636,3.267,3.2716,3.2772,3.2809,3.2863,3.2953,3.2966,3.2993,3.3001,3.3007,3.3015,3.3066,3.3078,3.2945,3.2945,3.2945,0,0,3.2337,3.2375,3.2407,3.2483,3.2517,3.2573,3.2546,3.2607,3.2649,3.2646,3.2723,3.275,3.2802,3.2888,3.2927,3.2912,3.3055,3.3015,3.302,3.3025,3.3073,3.3086,3.3097,3.2949,3.2949,3.2948,0,0,3.2418,3.2451,3.2513,3.2549,3.2601,3.2621,3.2636,3.2688,3.2705,3.2783,3.2782,3.2834,3.293,3.2968,3.2999,3.3097,3.3093,3.3114,3.3157,3.3206,3.3216,3.3226,3.326,3.3272,3.3122,3.3122,3.3123,0,3.2447,3.253,3.2546,3.2607,3.2641,3.2641,3.2705,3.2739,3.2806,3.283,3.2813,3.2935,3.297,3.3064,3.3088,3.3114,3.3133,3.3107,3.3213,3.3223,3.3232,3.3265,3.3278,3.3125,3.3124,3.3124,3.3124,0,3.2563,3.2621,3.2666,3.273,3.277,3.2832,3.2859,3.2897,3.2904,3.2926,3.3007,3.3049,3.3112,3.3136,3.3143,3.3232,3.3221,3.3209,3.3177,3.3246,3.3278,3.3291,3.3128,3.3127,3.3126,3.3126,0,0,3.2654,3.2729,3.2745,3.2774,3.2833,3.2879,3.2942,3.3003,3.3036,3.3084,3.3138,3.322,3.3209,3.3245,3.3257,3.33,3.3375,3.3282,3.3284,3.3297,3.3476,3.3484,3.3499,3.3373,3.3376,3.3378,3.3471,0,3.274,3.285,3.2868,3.2966,3.302,3.3023,3.3078,3.3121,3.3145,3.3195,3.3223,3.328,3.3261,3.3283,3.3326,3.3356,3.3411,3.335,3.3424,3.3427,3.3409,3.3515,3.3524,3.361,3.3484,3.3486,3.3488,0,3.2854,3.2904,3.3007,3.3059,3.3083,3.3132,3.319,3.3239,3.3288,3.3303,3.3344,3.3351,3.3418,3.3385,3.3479,3.3437,3.3469,3.3489,3.3493,3.3499,3.346,3.3523,3.3637,3.365,3.3507,3.3506,3.3504,0,3.2909,3.3003,3.3077,3.3102,3.3166,3.32,3.3229,3.3276,3.3312,3.3364,3.3388,3.3447,3.3479,3.3526,3.3549,3.3523,3.3642,3.361,3.3656,3.3655,3.3679,3.3677,3.3799,3.3702,3.3702,3.3702,3.3701,0,3.3002,3.3065,3.3103,3.3148,3.3219,3.324,3.331,3.3338,3.338,3.3432,3.3439,3.3487,3.3516,3.357,3.3589,3.3663,3.3679,3.3693,3.3697,3.3691,3.3689,3.3711,3.3705,3.3705,3.3704,3.3704,3.3703,0,3.3075,3.3103,3.3183,3.3237,3.3253,3.3303,3.3349,3.3394,3.3419,3.3484,3.3501,3.354,3.3603,3.3632,3.371,3.3723,3.3808,3.3809,3.3791,3.3792,3.3836,3.3831,3.3975,3.3995,3.3886,3.3887,3.3888,0,3.3132,3.318,3.3239,3.3274,3.3303,3.3359,3.3396,3.342,3.3459,3.352,3.3558,3.3621,3.3673,3.3774,3.381,3.3871,3.3872,3.3919,3.3881,3.3874,3.3872,3.3868,3.3873,3.3925,3.3926,3.3927,3.3927,0,3.3229,3.3241,3.3293,3.3352,3.3396,3.3443,3.3489,3.3517,3.3549,3.3592,3.3657,3.3697,3.3777,3.384,3.3904,3.3934,3.3936,3.3939,3.3953,3.3947,3.3934,3.3941,3.3808,3.3935,3.3935,3.3934,3.3934,3.3933,3.3295,3.3338,3.3387,3.3446,3.3483,3.3527,3.3572,3.3602,3.3656,3.3723,3.3735,3.3803,3.3854,3.3939,3.3972,3.4027,3.4016,3.4036,3.404,3.4045,3.4047,3.3927,3.4039,3.4039,3.4038,3.4038,3.4038,0,3.3391,3.3423,3.3478,3.3542,3.3589,3.3587,3.3639,3.3679,3.3739,3.3785,3.3836,3.3911,3.3973,3.4015,3.4078,3.4114,3.4117,3.413,3.4126,3.4133,3.4053,3.4035,3.4126,3.4126,3.4126,3.4126,3.4126,3.4126,3.3447,3.352,3.3538,3.3631,3.3663,3.373,3.376,3.38,3.3838,3.3921,3.3972,3.3999,3.4044,3.411,3.4168,3.4178,3.4201,3.4214,3.4224,3.4148,3.4139,3.413,3.4113,3.4219,3.4219,3.43,3.43,3.4301]},{"header":{"parameterUnit":"m.s-1","parameterCategory":1,"la1":30.2991,"la2":30.254,"lo1":-89.0895,"lo2":-89.0444,"dy":0.0017,"dx":0.0017,"nx":28,"ny":28,"refTime":"2025-07-09T03:00:00:Z","depth":0,"parameterNumber":3,"parameterNumberName":"V-component_of_WINDS"},"data":[0,0,0,0,0,0,0,0,0,0,0,0,0,0,0,0,0,0,0,0,0,0,0,0,0,0,0,0,0,0,0,0,0,0,0,0,0,0,0,0,0,0,0,0,0,0,0,0,0,0,0,0,0,0,0,0,0,0,3.9884,3.9885,0,4.0002,4.0004,4.0005,4.0032,4.0031,4.0031,4.003,4.0146,4.015,4.0153,0,0,0,0,0,0,0,0,0,0,0,0,0,3.9673,3.9676,3.9884,3.9885,3.9887,4.0002,4.0004,4.0005,4.0032,4.0031,4.003,4.003,4.0145,4.0149,4.0154,0,0,0,0,0,0,0,0,0,0,0,0,0,3.9775,3.9678,3.9883,3.9914,3.9918,4.0002,4.0004,4.0006,4.0033,4.0031,4.003,4.0029,4.0143,4.0149,4.0154,4.0214,0,0,4.0172,4.0175,0,0,0,0,0,0,0,0,3.9769,3.9783,3.9908,3.9912,3.9917,4.0001,3.9972,4.0075,4.0033,3.9989,4.003,4.0028,4.0098,4.0108,4.0133,4.022,4.0225,4.0173,4.0176,4.0179,4.018,0,0,0,0,0,0,0,3.9762,3.9778,3.993,3.991,3.9915,3.9919,3.9933,3.9992,4.0049,3.9993,3.9995,4.0009,4.0101,4.0127,4.0135,4.0226,4.0172,4.0178,4.0181,4.0183,4.0364,4.0365,0,0,0,0,0,0,3.975,3.9772,3.9927,3.9934,3.9839,3.9924,3.9939,3.9975,4.0048,4.0058,4.001,4.001,4.0118,4.0129,4.014,4.0212,4.0179,4.0184,4.0187,4.0362,4.0364,4.0365,0,0,0,0,0,0,3.9746,3.9764,3.9922,3.9853,3.9874,3.9929,3.997,3.9978,4.0005,4.0061,4.0071,4.0027,4.0117,4.0132,4.0195,4.0216,4.0187,4.0192,4.0361,4.0363,4.0365,4.0358,0,0,0,0,0,0,3.974,3.9762,3.9788,3.9854,3.9877,3.9978,3.9971,3.9982,4.0015,4.0016,4.008,4.0089,4.0117,4.0186,4.0201,4.0224,4.0196,4.0359,4.0362,4.0364,4.0356,4.0359,4.0362,0,0,0,0,0,3.9732,3.9781,3.9789,3.9807,3.9911,3.9979,3.9992,4.0025,4.0017,4.0041,4.0077,4.0087,4.0212,4.0192,4.0209,4.0234,4.0358,4.0361,4.0364,4.0355,4.0359,4.0362,0,0,0,0,0,0,3.9715,3.979,3.98,3.9872,3.9919,3.9983,4.0016,4.0028,4.0077,4.0076,4.0113,4.0127,4.0187,4.0217,4.0194,4.0293,4.0284,4.029,4.0272,4.0276,4.0278,4.0269,4.0201,0,0,0,0,0,3.9719,3.9771,3.9833,3.989,3.9913,3.996,3.9991,4.0012,4.0062,4.0081,4.0122,4.0167,4.0216,4.0248,4.0296,4.0361,4.0373,4.0386,4.0388,4.039,4.0395,4.0428,4.0433,4.0375,4.0375,4.0375,0,0,3.9729,3.9777,3.9807,3.9888,3.9927,3.9976,3.9977,4.003,4.0066,4.0089,4.0151,4.0181,4.0234,4.0298,4.0327,4.0324,4.0414,4.0394,4.0395,4.0399,4.0431,4.0437,4.0441,4.0377,4.0377,4.0376,0,0,3.9773,3.9815,3.9866,3.9905,3.9963,3.9994,4.0006,4.0068,4.0089,4.0152,4.0169,4.0211,4.0296,4.0332,4.0361,4.0414,4.0424,4.0428,4.0443,4.0474,4.0478,4.0483,4.0499,4.0504,4.0433,4.0433,4.0433,0,3.9777,3.9855,3.989,3.9942,3.9975,3.9999,4.0048,4.0084,4.0154,4.0175,4.0171,4.0276,4.0313,4.0383,4.0396,4.042,4.0432,4.0421,4.0475,4.048,4.0484,4.05,4.0506,4.0433,4.0433,4.0433,4.0433,0,3.9856,3.9909,3.9942,4.0011,4.0048,4.0098,4.0138,4.0171,4.0188,4.0218,4.0279,4.0325,4.0381,4.0399,4.0417,4.0471,4.0467,4.0468,4.046,4.0489,4.0504,4.0511,4.0433,4.0433,4.0433,4.0433,0,0,3.9893,3.9979,3.999,4.002,4.0085,4.0125,4.0174,4.0231,4.0257,4.0304,4.0344,4.0414,4.0415,4.0448,4.0469,4.0496,4.0531,4.0494,4.0496,4.0498,4.059,4.0587,4.0594,4.0538,4.0539,4.054,4.0585,0,3.9942,4.0034,4.0066,4.014,4.0187,4.0209,4.0251,4.0294,4.0322,4.0364,4.0394,4.0441,4.0441,4.046,4.0489,4.0521,4.055,4.0518,4.0573,4.0575,4.0558,4.0603,4.0601,4.0641,4.0591,4.0592,4.0593,0,4.0013,4.0061,4.0141,4.0197,4.0218,4.0256,4.0308,4.0349,4.0396,4.0414,4.045,4.0468,4.0516,4.0505,4.0571,4.0548,4.0572,4.0591,4.0593,4.0599,4.0585,4.0607,4.0655,4.066,4.0603,4.0602,4.0602,0,4.0029,4.0114,4.0172,4.0197,4.0264,4.029,4.0319,4.0365,4.0395,4.044,4.046,4.0509,4.0536,4.0572,4.0601,4.0591,4.0663,4.0655,4.0677,4.0676,4.0691,4.069,4.0741,4.0709,4.0708,4.0708,4.0708,0,4.008,4.0127,4.0179,4.0215,4.0267,4.0301,4.035,4.038,4.042,4.0459,4.048,4.0516,4.0553,4.0593,4.0616,4.0665,4.0677,4.0691,4.0696,4.0689,4.0687,4.0704,4.0702,4.071,4.071,4.0709,4.0709,0,4.0107,4.0144,4.0208,4.0266,4.0281,4.0317,4.0365,4.0399,4.0427,4.0475,4.0489,4.0532,4.0579,4.0612,4.0673,4.0688,4.074,4.0746,4.0725,4.0727,4.0747,4.0744,4.0811,4.082,4.0782,4.0783,4.0783,0,4.0136,4.0173,4.0235,4.0263,4.0292,4.0338,4.0369,4.0403,4.0434,4.0488,4.0514,4.0563,4.0604,4.0678,4.0713,4.0758,4.0764,4.0784,4.0771,4.0761,4.0762,4.0759,4.0761,4.0786,4.0786,4.0786,4.0787,0,4.0184,4.02,4.0245,4.0296,4.0333,4.0374,4.0416,4.0437,4.0477,4.051,4.056,4.0591,4.0653,4.07,4.0748,4.0774,4.0786,4.079,4.0798,4.079,4.0775,4.0781,4.0729,4.0789,4.0788,4.0788,4.0788,4.0788,4.0212,4.0244,4.0292,4.0341,4.0375,4.0413,4.0446,4.0478,4.052,4.0574,4.0591,4.0641,4.0683,4.0749,4.0776,4.0814,4.0812,4.0823,4.0826,4.0827,4.0826,4.077,4.0823,4.0823,4.0823,4.0823,4.0823,0,4.0259,4.029,4.0335,4.0392,4.0429,4.0438,4.0483,4.0513,4.0558,4.0597,4.0637,4.0691,4.0736,4.0774,4.082,4.0842,4.0848,4.0853,4.0851,4.0856,4.0826,4.0814,4.0847,4.0847,4.0847,4.0847,4.0847,4.0847,4.0287,4.0342,4.0363,4.0433,4.0464,4.0514,4.0539,4.0572,4.0603,4.0664,4.0702,4.0727,4.0764,4.0812,4.0853,4.0862,4.0877,4.088,4.0891,4.0862,4.0859,4.0856,4.0845,4.0884,4.0884,4.0918,4.0918,4.0918]}]]